Location: Cahas Mountain Overlook
(37.0833°N, 80.1000°W)
Time: 00:56:14
(UTC-05:00)

Transit 4A - All Passes

Search period start: 29 November 2023 00:00
Search period end: 09 December 2023 00:00
Orbit: 864 x 979 km, 66.8° (Epoch: 28 November)

Date Brightness Start Highest point End Pass type
(mag) Time Alt. Az. Time Alt. Az. Time Alt. Az.
29 Nov - 05:44:24 10° N 05:49:29 26° NE 05:54:24 10° ESE visible
29 Nov - 07:30:15 10° NW 07:36:04 49° WSW 07:41:41 10° S daylight
29 Nov - 20:47:40 10° S 20:53:51 53° ESE 21:00:01 10° NE night (unlit)
29 Nov - 22:35:08 10° WSW 22:40:29 27° NW 22:45:49 10° N night (unlit)
30 Nov - 05:53:10 10° NNW 05:58:49 38° NE 06:04:16 10° ESE visible
30 Nov - 07:39:45 10° NW 07:44:59 32° WSW 07:50:06 10° SSW daylight
30 Nov - 19:17:04 10° ESE 19:17:33 10° E 19:18:01 10° E night (unlit)
30 Nov - 20:56:30 10° SSW 21:02:53 79° ESE 21:09:16 10° NNE night (unlit)
30 Nov - 22:45:27 10° W 22:49:56 20° NW 22:54:24 10° N night (unlit)
01 Dec - 04:19:22 10° NNE 04:20:17 10° NE 04:21:11 10° NE visible
01 Dec - 06:02:05 10° NNW 06:08:04 56° ENE 06:13:50 10° SE visible
01 Dec - 07:49:36 10° WNW 07:53:51 20° WSW 07:58:01 10° SSW daylight
01 Dec - 19:22:25 10° SE 19:26:20 17° ESE 19:30:14 10° ENE visible
01 Dec - 21:05:37 10° SW 21:12:00 72° WNW 21:18:22 10° NNE visible
01 Dec - 22:56:17 10° WNW 22:59:28 14° NW 23:02:38 10° NNW night (unlit)
02 Dec - 04:26:34 10° N 04:29:54 15° NE 04:33:10 10° ENE visible
02 Dec - 06:11:06 10° NNW 06:17:13 83° ENE 06:23:06 10° SSE visible
02 Dec - 08:00:19 10° WNW 08:02:38 12° W 08:04:56 10° SW daylight
02 Dec - 19:30:01 10° SSE 19:35:10 26° ESE 19:40:19 10° NE visible
02 Dec - 21:15:01 10° SW 21:21:12 49° WNW 21:27:21 10° NNE visible
03 Dec - 04:34:55 10° N 04:39:24 21° NE 04:43:47 10° E visible
03 Dec - 06:20:17 10° NNW 06:26:17 66° WSW 06:32:05 10° SSE visible
03 Dec - 19:38:13 10° S 19:44:05 40° ESE 19:49:58 10° NE visible
03 Dec - 21:24:43 10° WSW 21:30:28 34° NW 21:36:13 10° N visible
04 Dec - 04:43:34 10° N 04:48:49 29° NE 04:53:55 10° ESE visible
04 Dec - 06:29:37 10° NW 06:35:16 42° WSW 06:40:45 10° S visible
04 Dec - 19:46:49 10° S 19:53:05 60° ESE 19:59:20 10° NE visible
04 Dec - 21:34:45 10° WSW 21:39:51 24° NW 21:44:55 10° N visible
05 Dec - 04:52:22 10° NNW 04:58:07 42° NE 05:03:42 10° SE visible
05 Dec - 06:39:12 10° NW 06:44:10 27° WSW 06:49:01 10° SSW visible
05 Dec - 18:14:22 10° ESE 18:16:42 12° E 18:19:01 10° E visible
05 Dec - 19:55:45 10° SSW 20:02:09 88° ESE 20:08:32 10° NNE visible
05 Dec - 21:45:12 10° W 21:49:19 18° NW 21:53:25 10° N visible
06 Dec - 03:17:43 10° NNE 03:19:42 12° NE 03:21:40 10° ENE visible
06 Dec - 05:01:18 10° NNW 05:07:20 63° ENE 05:13:09 10° SE visible
06 Dec - 06:49:14 10° WNW 06:53:00 17° WSW 06:56:43 10° SW visible
06 Dec - 18:21:06 10° SSE 18:25:30 20° ESE 18:29:53 10° ENE visible
06 Dec - 20:04:56 10° SW 20:11:17 64° WNW 20:17:36 10° NNE visible
06 Dec - 21:56:19 10° WNW 21:58:54 12° NW 22:01:26 10° NNW visible
07 Dec - 03:25:33 10° N 03:29:17 16° NE 03:32:56 10° E visible
07 Dec - 05:10:23 10° NNW 05:16:28 87° WSW 05:22:20 10° SSE visible
07 Dec - 07:01:05 10° W 07:01:46 10° W 07:02:28 10° WSW daylight
07 Dec - 18:28:56 10° SSE 18:34:22 30° ESE 18:39:47 10° NE visible
07 Dec - 20:14:26 10° SW 20:20:30 44° WNW 20:26:32 10° NNE visible
08 Dec - 03:34:00 10° N 03:38:45 23° NE 03:43:23 10° E visible
08 Dec - 05:19:36 10° NW 05:25:30 57° WSW 05:31:12 10° S visible
08 Dec - 18:37:17 10° S 18:43:18 45° ESE 18:49:19 10° NE visible
08 Dec - 20:24:14 10° WSW 20:29:49 31° NW 20:35:21 10° N visible
